Location: Unspecified
(0.0000°N, 0.0000°E)
Time: 06:17:03
(UTC+00:00)

Vanguard 3 - All Passes

Search period start: 14 December 2017 00:00
Search period end: 24 December 2017 00:00
Orbit: 509 x 3263 km, 33.3° (Epoch: 13 December)

Date Brightness Start Highest point End Pass type
(mag) Time Alt. Az. Time Alt. Az. Time Alt. Az.
14 Dec - 02:02:00 10° SW 02:13:25 18° S 02:24:39 10° SE visible
14 Dec - 04:22:00 10° SSW 04:35:57 24° SSE 04:46:38 10° ESE visible
14 Dec - 06:38:43 10° SW 06:54:04 51° SSE 07:02:56 10° ENE daylight
14 Dec - 08:56:38 10° WSW 09:07:45 49° NW 09:14:02 10° NNE daylight
14 Dec - 17:59:32 10° N 18:04:27 24° NE 18:11:46 10° E daylight
14 Dec - 20:08:46 10° WNW 20:16:44 79° SW 20:31:31 10° SE visible
14 Dec - 22:22:39 10° W 22:33:04 32° SSW 22:48:21 10° SE visible
15 Dec - 00:42:53 10° SW 00:53:55 19° S 01:06:11 10° SSE visible
15 Dec - 03:04:30 10° SSW 03:17:25 20° S 03:28:44 10° SE visible
15 Dec - 05:21:45 10° SW 05:37:43 37° SSE 05:48:13 10° E visible
15 Dec - 07:38:50 10° SW 07:53:31 88° NW 08:01:25 10° NE daylight
15 Dec - 09:59:41 10° W 10:05:37 18° NW 10:09:55 10° N daylight
15 Dec - 18:55:55 10° NW 19:02:20 61° NE 19:14:02 10° ESE visible
15 Dec - 21:07:36 10° W 21:16:30 44° SSW 21:31:25 10° SE visible
15 Dec - 23:24:45 10° WSW 23:35:08 22° SSW 23:48:17 10° SSE visible
16 Dec - 01:46:33 10° SSW 01:58:02 18° S 02:09:29 10° SE visible
16 Dec - 04:04:51 10° SSW 04:20:17 28° SSE 04:32:06 10° ESE visible
16 Dec - 06:21:29 10° SW 06:38:14 62° SSE 06:47:55 10° ENE daylight
16 Dec - 08:40:17 10° WSW 08:51:54 42° NW 08:58:39 10° NNE daylight
16 Dec - 17:44:00 10° NNW 17:48:45 27° NE 17:56:01 10° E daylight
16 Dec - 19:53:42 10° WNW 20:01:01 65° SSW 20:14:30 10° SE visible
16 Dec - 22:08:06 10° WSW 22:17:27 27° SSW 22:30:58 10° SSE visible
17 Dec - 00:28:20 10° SW 00:38:31 17° S 00:49:56 10° SSE visible
17 Dec - 02:47:56 10° SSW 03:01:50 22° SSE 03:14:11 10° ESE visible
17 Dec - 05:04:27 10° SW 05:21:51 44° SSE 05:33:20 10° E visible
17 Dec - 07:21:58 10° WSW 07:37:34 76° NW 07:46:09 10° NE daylight
17 Dec - 09:44:17 10° WNW 09:49:55 16° NW 09:54:11 10° N daylight
17 Dec - 18:40:41 10° NW 18:46:37 74° NE 18:57:31 10° ESE visible
17 Dec - 20:52:51 10° W 21:00:55 36° SSW 21:14:05 10° SE visible
17 Dec - 23:10:32 10° SW 23:19:42 19° S 23:31:10 10° SSE visible
18 Dec - 01:30:55 10° SSW 01:42:35 18° S 01:54:27 10° SE visible
18 Dec - 03:47:45 10° SSW 04:04:27 33° SSE 04:17:21 10° E visible
18 Dec - 06:04:18 10° SW 06:22:14 72° SE 06:32:43 10° ENE daylight
18 Dec - 08:23:59 10° WSW 08:35:58 37° NW 08:43:11 10° NNE daylight
18 Dec - 17:28:32 10° NNW 17:33:06 32° NE 17:40:13 10° ESE daylight
18 Dec - 19:38:45 10° WNW 19:45:27 52° SSW 19:57:28 10° SE visible
18 Dec - 21:53:47 10° WSW 22:02:00 22° SSW 22:13:30 10° SSE visible
19 Dec - 00:13:43 10° SSW 00:23:10 16° S 00:33:50 10° SE visible
19 Dec - 02:31:20 10° SSW 02:46:06 25° SSE 02:59:29 10° ESE visible
19 Dec - 04:47:14 10° SW 05:05:48 51° SSE 05:18:15 10° ENE visible
19 Dec - 07:05:07 10° WSW 07:21:29 66° NW 07:30:45 10° NE daylight
19 Dec - 09:29:00 10° WNW 09:34:15 15° NW 09:38:22 10° N daylight
19 Dec - 16:18:56 10° NNE 16:19:49 10° NE 16:20:46 10° NE daylight
19 Dec - 18:25:32 10° NW 18:31:02 89° SSW 18:40:59 10° SE visible
19 Dec - 20:38:19 10° WSW 20:45:30 28° SSW 20:56:41 10° SSE visible
19 Dec - 22:56:30 10° SW 23:04:22 16° S 23:14:02 10° SSE visible
20 Dec - 01:15:08 10° SSW 01:27:04 19° SSE 01:39:29 10° SE visible
20 Dec - 03:30:43 10° SW 03:48:24 38° SSE 04:02:23 10° E visible
20 Dec - 05:47:13 10° SW 06:06:03 83° SE 06:17:23 10° ENE daylight
20 Dec - 08:07:44 10° W 08:19:58 33° NW 08:27:38 10° NNE daylight
20 Dec - 17:13:09 10° NNW 17:17:30 40° NE 17:24:23 10° ESE daylight
20 Dec - 19:23:58 10° W 19:30:03 40° SSW 19:40:26 10° SE visible
20 Dec - 21:39:47 10° SW 21:46:42 18° SSW 21:55:56 10° SSE visible
20 Dec - 23:58:58 10° SSW 00:07:51 16° S 00:17:57 10° SE visible
21 Dec - 02:14:44 10° SSW 02:30:13 28° SSE 02:44:37 10° ESE visible
21 Dec - 04:30:07 10° SW 04:49:34 59° SSE 05:02:59 10° ENE visible
21 Dec - 06:48:22 10° WSW 07:05:16 58° NW 07:15:16 10° NE daylight
21 Dec - 09:13:52 10° WNW 09:18:35 13° NW 09:22:27 10° NNW daylight
21 Dec - 16:02:17 10° NNE 16:04:20 13° NE 16:06:41 10° ENE daylight
21 Dec - 18:10:30 10° WNW 18:15:35 68° SSW 18:24:28 10° SE visible
21 Dec - 20:24:03 10° WSW 20:30:13 22° SSW 20:39:13 10° SSE visible
21 Dec - 22:42:40 10° SSW 22:49:09 14° S 22:56:54 10° SSE visible
22 Dec - 00:59:11 10° SSW 01:11:27 21° SSE 01:24:29 10° ESE visible
22 Dec - 03:13:47 10° SW 03:32:11 43° SSE 03:47:12 10° E visible
22 Dec - 05:30:13 10° SW 05:49:41 88° NW 06:01:55 10° NE visible
22 Dec - 07:51:35 10° W 08:03:57 29° NW 08:12:00 10° NNE daylight
22 Dec - 16:57:50 10° NW 17:02:00 51° NE 17:08:31 10° ESE daylight
22 Dec - 19:09:23 10° W 19:14:46 30° SSW 19:23:21 10° SSE visible
22 Dec - 21:26:13 10° SW 21:31:31 14° S 21:38:09 10° SSE visible
22 Dec - 23:44:02 10° SSW 23:52:31 15° SSE 00:02:15 10° SE visible
23 Dec - 01:58:09 10° SSW 02:14:09 31° SSE 02:29:32 10° E visible
23 Dec - 04:13:07 10° SW 04:33:07 67° SE 04:47:32 10° ENE visible
23 Dec - 06:31:42 10° WSW 06:48:57 52° NW 06:59:40 10° NE daylight
23 Dec - 08:58:52 10° WNW 09:02:58 12° NW 09:06:25 10° NNW daylight
23 Dec - 15:46:15 10° N 15:48:51 17° NE 15:51:57 10° E daylight
23 Dec - 17:55:36 10° WNW 18:00:15 49° SSW 18:07:57 10° SE daylight
23 Dec - 20:10:11 10° SW 20:15:02 16° SSW 20:21:33 10° SSE visible
23 Dec - 22:29:02 10° SSW 22:34:00 12° S 22:39:43 10° SSE visible
